TimeEST,TemperatureF,Dew PointF,Humidity,Sea Level PressureIn,VisibilityMPH,Wind Direction,Wind SpeedMPH,Gust SpeedMPH,PrecipitationIn,Events,Conditions,WindDirDegrees,DateUTC
12:54 AM,44.1,43.0,96,30.21,8.0,NNW,3.5,-,N/A,,Clear,330,2009-03-07 05:54:00
1:54 AM,44.1,42.1,93,30.21,10.0,Calm,Calm,-,N/A,,Clear,0,2009-03-07 06:54:00
2:54 AM,44.1,43.0,96,30.21,9.0,NNW,5.8,-,N/A,,Clear,330,2009-03-07 07:54:00
3:54 AM,44.1,42.1,93,30.21,9.0,Calm,Calm,-,N/A,,Clear,0,2009-03-07 08:54:00
4:54 AM,46.0,43.0,89,30.23,10.0,NNW,4.6,-,N/A,,Clear,330,2009-03-07 09:54:00
5:54 AM,46.9,43.0,86,30.24,10.0,NNW,3.5,-,N/A,,Clear,330,2009-03-07 10:54:00
6:54 AM,37.9,37.0,97,30.26,8.0,Calm,Calm,-,N/A,,Clear,0,2009-03-07 11:54:00
7:54 AM,44.1,41.0,89,30.27,10.0,Calm,Calm,-,N/A,,Clear,0,2009-03-07 12:54:00
8:54 AM,48.9,44.1,83,30.27,10.0,Calm,Calm,-,N/A,,Clear,0,2009-03-07 13:54:00
9:54 AM,57.0,46.9,69,30.26,10.0,South,3.5,-,N/A,,Clear,170,2009-03-07 14:54:00
10:54 AM,66.9,48.0,51,30.25,10.0,North,5.8,-,N/A,,Clear,10,2009-03-07 15:54:00
11:54 AM,69.1,45.0,42,30.22,10.0,Calm,Calm,-,N/A,,Clear,0,2009-03-07 16:54:00
12:54 PM,72.0,43.0,35,30.19,10.0,Calm,Calm,-,N/A,,Clear,0,2009-03-07 17:54:00
1:54 PM,75.0,45.0,34,30.15,10.0,Variable,3.5,-,N/A,,Clear,0,2009-03-07 18:54:00
2:54 PM,77.0,44.1,31,30.12,10.0,ESE,9.2,-,N/A,,Clear,120,2009-03-07 19:54:00
3:54 PM,77.0,45.0,32,30.11,10.0,South,12.7,-,N/A,,Clear,190,2009-03-07 20:54:00
4:54 PM,73.9,46.9,38,30.11,10.0,SSW,12.7,19.6,N/A,,Clear,200,2009-03-07 21:54:00
5:54 PM,69.1,52.0,54,30.12,10.0,South,13.8,-,N/A,,Clear,180,2009-03-07 22:54:00
6:54 PM,64.0,53.1,67,30.14,10.0,South,11.5,-,N/A,,Clear,170,2009-03-07 23:54:00
7:54 PM,61.0,52.0,72,30.16,10.0,South,10.4,-,N/A,,Clear,170,2009-03-08 00:54:00
8:54 PM,60.1,50.0,69,30.15,10.0,South,12.7,-,N/A,,Clear,180,2009-03-08 01:54:00
9:54 PM,57.9,48.9,72,30.14,10.0,South,10.4,-,N/A,,Clear,190,2009-03-08 02:54:00
10:54 PM,57.0,48.9,74,30.14,10.0,Variable,3.5,-,N/A,,Clear,0,2009-03-08 03:54:00
11:54 PM,55.9,48.0,75,30.13,10.0,Calm,Calm,-,N/A,,Clear,0,2009-03-08 04:54:00